Lapse_Rate
1.9 1.8 1.5 1.0 0.1 -0.1 -0.7 -1.0 -0.7 -0.6 -0.3 -0.2 0.1 0.1 -0.2 -0.8 -0.5 -0.7 -0.7 -0.4 0.2 0.2
2.2 1.5 1.1 0.3 0.5 0.1 -0.4 0.3 -0.0 -0.3 -0.2 0.4 0.3 0.7 0.4 -0.5 -0.2 0.2 0.1 0.6 0.6 0.6
1.8 1.7 0.9 0.9 0.9 1.0 0.1 1.4 0.1 -0.1 0.3 0.4 0.5 0.7 0.6 0.2 0.7 0.6 0.3 0.8 0.7 0.5
2.0 1.3 1.0 1.1 1.0 0.8 0.3 0.1 -0.1 0.8 0.7 0.9 0.7 0.9 1.2 1.5 1.0 0.8 0.3 0.3 0.3 0.1
1.0 0.9 0.9 0.6 0.9 1.4 1.2 0.6 0.9 1.4 1.8 1.1 1.0 1.4 1.6 2.3 1.1 0.9 0.8 0.5 0.7 0.4
1.3 1.1 1.1 1.0 1.5 1.8 2.0 1.7 2.0 2.4 2.0 1.6 1.8 2.1 1.9 1.8 1.1 1.1 1.2 0.8 0.7 0.3
1.0 1.2 -0.7 1.1 1.7 1.9 2.6 2.4 2.0 2.2 2.0 2.6 2.7 2.4 2.6 2.0 1.2 0.8 0.6 0.4 0.2 0.1
1.1 1.1 1.0 1.1 1.8 1.8 2.2 3.9 2.6 2.9 2.0 2.3 2.9 3.1 2.0 2.2 1.5 0.8 -0.1 -0.3 0.1 -0.5
0.5 1.1 1.2 1.9 2.1 1.9 2.3 2.6 3.2 2.6 2.9 1.4 2.0 3.5 3.3 2.3 1.4 1.3 0.6 -0.2 -0.2 0.3
2.1 2.2 2.1 2.4 2.8 2.4 3.1 3.2 3.6 2.7 2.7 2.3 2.1 3.6 4.1 3.2 2.1 1.1 -0.4 -0.4 -0.1 -0.0
2.3 2.8 2.6 3.2 3.1 2.8 2.6 3.5 3.5 2.7 2.9 2.6 3.2 4.7 4.5 3.3 1.7 -0.0 -1.0 -1.0 -2.0 -2.1
3.2 3.1 3.1 3.8 3.9 4.3 3.7 4.3 4.3 3.5 2.6 2.9 3.9 4.6 3.9 2.8 1.9 1.1 -1.2 -1.8 -2.3 -2.4
3.3 3.0 2.7 3.0 1.4 2.2 4.1 4.6 4.6 3.7 3.2 4.6 4.0 4.6 3.9 2.9 2.3 1.1 0.5 0.0 -0.5 -0.1
3.8 3.8 3.8 2.8 2.1 1.9 2.9 4.0 3.9 3.6 3.9 4.0 4.1 5.0 4.5 3.5 2.5 1.9 1.1 0.7 -0.1 -0.1
Wind_Speed
10 7 6 7 7 5 5 5 6 6 7 8 9 8 7 3 3 5 4 6 5 3
10 10 9 7 5 4 5 5 6 8 6 7 9 9 7 4 4 4 4 4 5 3
10 10 9 9 9 7 7 6 6 6 6 6 7 7 6 4 4 5 3 3 5 4
9 10 10 10 8 8 8 8 7 6 6 6 6 5 5 5 5 6 5 4 6 5
14 12 11 10 10 9 10 9 9 7 6 7 7 6 6 6 5 6 5 5 6 5
9 12 11 11 9 10 9 9 9 7 6 6 6 6 5 6 6 5 5 5 5 5
11 11 14 13 11 10 8 9 8 7 6 6 6 6 6 7 6 5 4 4 4 4
10 11 11 12 12 11 12 8 8 7 7 7 7 6 8 7 6 7 6 4 5 4
12 11 12 13 12 11 10 9 8 7 8 7 4 13 15 11 6 6 7 6 4 5
13 13 13 12 13 12 11 10 9 7 8 7 6 15 17 16 7 7 5 6 6 5
14 13 12 13 13 12 10 11 10 8 7 7 6 16 17 16 7 5 5 5 5 5
13 13 12 11 9 9 11 9 9 8 8 9 6 15 17 12 7 7 6 4 5 5
12 13 14 14 12 10 10 10 7 7 8 11 7 16 17 13 6 7 5 4 5 11
11 12 12 12 10 10 11 10 9 10 8 7 9 10 17 17 8 7 6 6 5 4
Wind_Direction
166 167 167 178 156 168 153 147 157 131 130 136 132 121 117 102 111 97 92 88 74 76
175 161 167 158 149 155 134 148 146 143 139 145 136 131 123 116 114 113 102 105 100 89
179 173 152 155 154 156 135 139 141 134 142 148 140 133 126 115 118 108 94 111 98 81
179 162 149 152 153 161 147 150 145 151 153 149 141 143 133 132 122 107 101 91 97 85
164 155 153 153 159 167 167 157 150 155 166 152 145 150 144 143 131 124 119 116 102 105
168 156 154 148 155 160 163 155 146 154 161 154 149 144 138 134 131 124 125 127 122 126
173 172 153 152 155 155 164 155 144 156 148 144 141 131 132 129 125 119 112 108 112 116
164 158 152 149 155 156 158 170 149 160 144 145 150 148 138 137 138 132 121 114 118 120
154 158 160 161 160 157 144 153 165 154 162 147 142 150 154 144 144 143 141 139 126 116
167 171 171 163 159 154 161 155 154 145 155 143 143 173 161 154 149 150 149 145 140 132
169 174 166 170 163 154 154 157 146 151 147 143 196 168 162 156 141 135 131 146 145 133
173 165 161 152 151 154 151 148 154 156 151 178 173 161 155 144 143 147 143 136 144 150
171 164 162 155 154 161 153 153 150 152 176 184 163 165 161 150 149 148 155 154 180 176
164 165 162 155 156 161 163 160 164 170 166 173 181 181 176 170 167 166 167 175 182 185